Location: Carnières
(50.1682°N, 3.3474°E)
Time: 21:43:15
(UTC+00:00)

SL-16 R/B - Pass Details

Date: 10 August 2024
Orbit: 842 x 845 km, 71.0° (Epoch: 10 September)

Event Time Altitude Azimuth Distance (km) Brightness Sun altitude
Exits shadow 23:00:44 28° 101° (E) 1,534 3.3 -23.7°
Drops below altitude 10° 23:05:18 10° 47° (NE) 2,474 5.0 -23.8°
Sets 23:08:03 0° 37° (NE) 3,414 6.0 -23.9°
